sat.trackr.live / text

‹ back to catalog

STARLINK-4740

NORAD 53871 · 2022-114BF

PAYLOAD ACTIVE UNKNOWN

§ Identity

Operator
Country
US
Launch date
2022-09-19
Launch site
AFETR
Launch vehicle
Mass (kg)
RCS (m²)

Purposes: comms

External: N2YO · Heavens-Above · Gunter

§ Orbital elements

Epoch: 2026-09-20T21:59:05.862048Z

Period
93.85 min
Inclination
53.1591°
Eccentricity
0.0001294
Mean motion
15.34385626 rev/d
Perigee alt
461.9 km
Apogee alt
463.6 km
Semi-major
6,840.9 km
B*
1.6402e-5
RAAN
91.7068°
Arg perigee
88.2906°
Mean anomaly
271.8245°
Rev number
22,308

§ Raw data

STARLINK-47401 53871U 22114BF  26263.91604007  .00000178  00000+0  16402-4 0  99922 53871  53.1591  91.7068 0001294  88.2906 271.8245 15.34385626223087

JSON: /api/v1/satellites/53871 · /tle

For live sub-satellite position, see the globe view (requires WebGL).

§ Visibility from observer

Set your observer location to see the next 7 days of passes ≥ 10°. The values pass through the URL so the page stays shareable.

No JS? Fill the form by hand. The geolocation button needs JavaScript.